Simultaneous Nadir Overpasses (SNOs) Predictions

Prediction of SNOs between GOES-16 and METOP-B Satellite Orbit:

Table of predicted SNOs for the next 14.0 days since TLE Epoch: 5/15/2020
Index Date Time (GOES-16) GOES-16 Lat,Lon METOP-B Lat,Lon Distance(km) Time Diff (sec)
1 05/16/2020 02:20:04 -0.03, -75.18 0.53, -72.81 271.06 80
2 05/17/2020 14:38:55 0.03, -75.22 0.53, -77.36 243.94 80
3 05/18/2020 14:20:55 0.02, -75.23 -0.59, -72.36 326.20 80
4 05/20/2020 02:39:55 -0.02, -75.21 -0.44, -76.96 199.57 80
5 05/21/2020 02:16:36 -0.02, -75.23 0.68, -71.97 370.76 80
6 05/22/2020 14:35:27 0.02, -75.27 0.32, -76.53 143.51 80
7 05/23/2020 14:17:28 0.01, -75.29 -0.80, -71.54 426.93 80
8 05/25/2020 02:36:29 -0.01, -75.27 -0.17, -76.14 98.48 80
9 05/26/2020 02:13:10 -0.00, -75.29 0.95, -71.15 472.01 80
10 05/27/2020 14:32:00 -0.00, -75.34 0.11, -75.70 42.06 80




NCC Satellite Simultaneous Nadir Overpasses (SNOs) Prediction Service
